Tracking 34142 objects as of 18-May-2026
HD Live streaming from Space Station
objects crossing your sky now

AETHER-6

Track AETHER-6 now!
10-day predictions


NORAD ID: 67377
Int'l Code: 2026-004Q
Perigee: 612.4 km
Apogee: 616.7 km
Inclination: 97.8 °
Period: 96.8 minutes
Semi major axis: 6985 km
RCS: Unknown
Launch date: January 11, 2026
Source: Canada (CA)
Launch site: AIR FORCE WESTERN TEST RANGE (AFWTR)
Your satellite tracking list
Your tracking list is empty




NASA's NSSDC Master Catalog

Two Line Element Set (TLE):
1 67377U 26004Q   26137.76463191  .00000378  00000-0  48228-4 0  9994
2 67377  97.8038 136.9224 0003122 208.1653 151.9395 14.86975415 18762
Source of the keplerian elements: AFSPC